| time (UTC) | temp F | wind direction | speed MPH | gust MPH | rain 1hr in | rain 24hr in | rain mn in | humidity % | barometer mb |
| 20260504080844 | 67 | 271 | 3.0 | 7.0 | 0.00 | 0.61 | 0.08 | 40 | 1003.6 |
| 20260504045345 | 66 | 261 | 8.0 | 17.0 | 0.00 | 0.96 | 0.08 | 44 | 1002.4 |
| 20260504043845 | 66 | 259 | 9.0 | 17.0 | 0.00 | 0.98 | 0.08 | 45 | 1002.6 |
| 20260504042344 | 66 | 241 | 9.0 | 18.0 | 0.00 | 0.98 | 0.08 | 44 | 1002.5 |
| 20260504040845 | 66 | 255 | 9.0 | 19.0 | 0.00 | 0.98 | 0.08 | 45 | 1002.2 |
| 20260504035345 | 65 | 272 | 10.0 | 21.0 | 0.00 | 0.98 | 0.08 | 46 | 1002.2 |
| 20260504033845 | 65 | 252 | 12.0 | 21.0 | 0.02 | 0.98 | 0.08 | 47 | 1002.2 |
| 20260504032345 | 66 | 267 | 11.0 | 23.0 | 0.02 | 0.98 | 0.08 | 44 | 1002.0 |
| 20260504030845 | 65 | 270 | 12.0 | 20.0 | 0.02 | 0.98 | 0.08 | 47 | 1001.9 |
| 20260504025345 | 65 | 259 | 11.0 | 19.0 | 0.02 | 0.98 | 0.08 | 48 | 1001.8 |
| 20260504023845 | 66 | 247 | 9.0 | 15.0 | 0.00 | 0.95 | 0.05 | 47 | 1002.1 |
| 20260504022345 | 65 | 241 | 7.0 | 12.0 | 0.00 | 0.95 | 0.05 | 48 | 1002.0 |
| 20260504020844 | 65 | 261 | 8.0 | 14.0 | 0.00 | 0.95 | 0.05 | 49 | 1002.0 |
| 20260504015344 | 64 | 256 | 6.0 | 14.0 | 0.00 | 0.95 | 0.05 | 48 | 1002.3 |
| 20260504013845 | 65 | 266 | 7.0 | 12.0 | 0.00 | 0.95 | 0.05 | 47 | 1001.9 |
| 20260504012345 | 65 | 270 | 9.0 | 13.0 | 0.00 | 0.95 | 0.05 | 46 | 1001.7 |
| 20260504010845 | 65 | 265 | 10.0 | 18.0 | 0.00 | 0.95 | 0.05 | 44 | 1001.8 |
| 20260504005345 | 64 | 291 | 11.0 | 19.0 | 0.05 | 0.95 | 0.05 | 47 | 1001.9 |
| 20260504003845 | 64 | 268 | 10.0 | 19.0 | 0.05 | 0.95 | 0.05 | 50 | 1001.3 |
| 20260504002345 | 63 | 278 | 11.0 | 17.0 | 0.05 | 0.95 | 0.05 | 60 | 1000.8 |
| 20260504000844 | 63 | 266 | 13.0 | 23.0 | 0.05 | 0.95 | 0.05 | 60 | 1000.8 |
| 20260503235344 | 64 | 276 | 9.0 | 17.0 | 0.00 | 0.89 | 0.00 | 55 | 1000.3 |
| 20260503233844 | 64 | 252 | 8.0 | 15.0 | 0.00 | 0.89 | 0.00 | 58 | 1000.1 |
| 20260503232344 | 64 | 258 | 8.0 | 15.0 | 0.00 | 0.89 | 0.00 | 60 | 999.8 |
| 20260503230844 | 64 | 264 | 7.0 | 15.0 | 0.00 | 0.89 | 0.00 | 59 | 999.8 |
| 20260503225344 | 64 | 263 | 5.0 | 12.0 | 0.00 | 0.89 | 0.00 | 60 | 999.4 |
| 20260503223846 | 64 | 270 | 5.0 | 9.0 | 0.00 | 0.89 | 0.00 | 61 | 999.4 |
| 20260503222345 | 64 | 252 | 4.0 | 9.0 | 0.00 | 0.89 | 0.00 | 62 | 999.5 |
| 20260503220844 | 64 | 228 | 3.0 | 6.0 | 0.00 | 0.89 | 0.00 | 64 | 999.1 |
| 20260503215344 | 62 | 232 | 6.0 | 12.0 | 0.00 | 0.89 | 0.00 | 70 | 999.2 |
| 20260503213844 | 62 | 244 | 6.0 | 11.0 | 0.00 | 0.89 | 0.00 | 70 | 998.4 |
| 20260503212344 | 61 | 270 | 5.0 | 10.0 | 0.00 | 0.89 | 0.00 | 70 | 998.3 |
| 20260503210844 | 61 | 284 | 6.0 | 12.0 | 0.00 | 0.89 | 0.00 | 70 | 998.2 |
| 20260503205344 | 61 | 233 | 6.0 | 12.0 | 0.00 | 0.89 | 0.00 | 70 | 997.9 |
| 20260503203844 | 61 | 243 | 5.0 | 9.0 | 0.00 | 0.89 | 0.00 | 70 | 997.8 |
| 20260503202346 | 61 | 222 | 6.0 | 14.0 | 0.00 | 0.89 | 0.00 | 68 | 997.1 |
| 20260503200846 | 61 | 239 | 6.0 | 14.0 | 0.00 | 0.89 | 0.00 | 68 | 997.2 |
| 20260503195346 | 61 | 258 | 6.0 | 12.0 | 0.00 | 0.89 | 0.00 | 70 | 997.3 |
| 20260503193845 | 61 | 246 | 7.0 | 12.0 | 0.00 | 0.89 | 0.00 | 68 | 997.1 |
| 20260503192345 | 62 | 263 | 7.0 | 15.0 | 0.00 | 0.89 | 0.00 | 68 | 996.9 |
| 20260503190845 | 61 | 210 | 4.0 | 8.0 | 0.00 | 0.89 | 0.00 | 74 | 996.9 |
| 20260503185345 | 61 | 239 | 4.0 | 10.0 | 0.00 | 0.89 | 0.00 | 78 | 996.6 |
| 20260503183845 | 61 | 236 | 4.0 | 9.0 | 0.00 | 0.89 | 0.00 | 76 | 996.7 |
| 20260503182345 | 61 | 223 | 5.0 | 9.0 | 0.00 | 0.89 | 0.00 | 75 | 996.6 |
| 20260503180845 | 61 | 256 | 4.0 | 9.0 | 0.00 | 0.89 | 0.00 | 75 | 996.7 |
| 20260503175345 | 61 | 236 | 5.0 | 9.0 | 0.00 | 0.89 | 0.00 | 74 | 996.6 |
| 20260503173845 | 61 | 248 | 5.0 | 12.0 | 0.00 | 0.89 | 0.00 | 77 | 996.7 |
| 20260503172344 | 62 | 251 | 6.0 | 10.0 | 0.00 | 0.89 | 0.00 | 76 | 996.6 |
| 20260503170844 | 62 | 265 | 6.0 | 11.0 | 0.00 | 0.89 | 0.00 | 76 | 996.2 |
| 20260503150845 | 62 | 212 | 6.0 | 13.0 | 0.00 | 0.89 | 0.00 | 83 | 995.3 |
| 20260503130846 | 62 | 275 | 4.0 | 9.0 | 0.01 | 0.88 | 0.88 | 88 | 994.7 |